Location: Bill Sadowski Park
(25.6087°N, 80.3181°W)
Time: 10:54:14
(UTC-04:00)

Tiangong 1 - Visible Passes

Search period start: 18 October 2017 00:00
Search period end: 28 October 2017 00:00
Orbit: 294 x 320 km, 42.8° (Epoch: 18 October)

Date Brightness Start Highest point End Pass type
(mag) Time Alt. Az. Time Alt. Az. Time Alt. Az.
18 Oct 1.8 19:15:46 10° NNW 19:18:08 27° NNE 19:20:29 10° E visible
19 Oct 0.6 19:26:00 10° NW 19:28:41 90° W 19:31:20 10° SE visible
20 Oct 2.9 19:36:46 10° W 19:39:02 24° SW 19:41:16 10° SSE visible
